Weather History for San Diego, CA

Change the Weather History Date:

Friday, November 2, 2012

  Actual Average Record
Temperature  
Mean Temperature 65 °F 64 °F  
Max Temperature 68 °F 71 °F 90 °F (1966)
Min Temperature 62 °F 57 °F 44 °F (1886)
Degree Days  
Heating Degree Days 0 2  
Month to date heating degree days 0 4  
Since 1 July heating degree days 4 25  
Cooling Degree Days 0 1  
Month to date cooling degree days 0 2  
Year to date cooling degree days 883 709  
Growing Degree Days 15 (Base 50)    
Moisture  
Dew Point 51 °F    
Average Humidity 64    
Maximum Humidity 72    
Minimum Humidity 56    
Precipitation  
Precipitation 0.00 in 0.03 in 0.55 in (1850)
Month to date precipitation 0.00 0.05  
Year to date precipitation 4.16 7.85  
Since 1 July precipitation 0.70 0.82  
Snow  
Snow 0.00 in - - ()
Month to date snowfall 0.0  
Year to date snowfall 0.0  
Since 1 July snowfall 0.0  
Snow Depth 0.00 in    
Sea Level Pressure  
Sea Level Pressure 29.99 in    
Wind  
Wind Speed 6 mph (NNW)    
Max Wind Speed 14 mph    
Max Gust Speed 18 mph    
Visibility 10 miles    
Events      
T = Trace of Precipitation, MM = Missing Value Source: NWS Daily Summary

Daily Weather History Graph

Daily Weather History Graph

Search for Another Location

Airport:

Trip Planner

Search our weather history database for the weather conditions in past years. The results will help you decide how hot, cold, wet, or windy it might be!

Date:

Astronomy

Nov. 02, 2012 Rise Set
Actual Time 7:07 AM PDT 5:56 PM PDT
Civil Twilight 6:42 AM PDT 6:21 PM PDT
Nautical Twilight 6:13 AM PDT 6:51 PM PDT
Astronomical Twilight 5:44 AM PDT 7:19 PM PDT
Moon 8:53 PM PDT (11/2) 10:25 AM PDT (11/2)
Length of Visible Light 11h 39m
Length of Day
10h 48m
Waning Gibbous, 86% of the Moon is Illuminated
Nov 2
Waning Gibbous
Nov 6
Last Quarter
Nov 13
New
Nov 20
First Quarter
Nov 28
Full

Hourly Weather History & Observations

Time (PDT) Temp. Dew Point Humidity Pressure Visibility Wind Dir Wind Speed Gust Speed Precip Events Conditions
12:51 AM 63.0 °F 53.1 °F 70% 30.01 in 10.0 mi NE 3.5 mph - N/A   Overcast
1:51 AM 63.0 °F 51.1 °F 65% 30.00 in 10.0 mi Calm Calm - N/A   Overcast
2:51 AM 63.0 °F 51.1 °F 65% 30.00 in 10.0 mi NNE 4.6 mph - N/A   Overcast
3:51 AM 63.0 °F 50.0 °F 63% 29.99 in 10.0 mi ENE 4.6 mph - N/A   Overcast
4:51 AM 62.1 °F 50.0 °F 65% 29.99 in 10.0 mi Calm Calm - N/A   Overcast
5:51 AM 62.1 °F 48.9 °F 62% 30.00 in 10.0 mi NW 3.5 mph - N/A   Overcast
6:51 AM 62.1 °F 48.9 °F 62% 30.00 in 10.0 mi NE 3.5 mph - N/A   Mostly Cloudy
7:51 AM 62.1 °F 48.9 °F 62% 30.01 in 10.0 mi NE 5.8 mph - N/A   Mostly Cloudy
8:26 AM 62.6 °F 48.2 °F 59% 30.02 in 10.0 mi NE 5.8 mph - N/A   Scattered Clouds
8:51 AM 63.0 °F 48.9 °F 60% 30.02 in 10.0 mi Variable 3.5 mph - N/A   Scattered Clouds
9:05 AM 62.6 °F 48.2 °F 59% 30.02 in 10.0 mi East 8.1 mph - N/A   Mostly Cloudy
9:43 AM 64.4 °F 50.0 °F 59% 30.02 in 10.0 mi Calm Calm - N/A   Scattered Clouds
9:51 AM 64.0 °F 48.9 °F 58% 30.02 in 10.0 mi East 4.6 mph - N/A   Scattered Clouds
10:51 AM 64.9 °F 50.0 °F 58% 30.02 in 10.0 mi SSW 6.9 mph - N/A   Scattered Clouds
11:51 AM 66.9 °F 50.0 °F 54% 30.01 in 10.0 mi West 8.1 mph - N/A   Scattered Clouds
12:51 PM 66.9 °F 50.0 °F 54% 29.99 in 10.0 mi WNW 9.2 mph - N/A   Scattered Clouds
1:51 PM 66.9 °F 51.1 °F 57% 29.97 in 10.0 mi NW 10.4 mph - N/A   Scattered Clouds
2:51 PM 66.9 °F 52.0 °F 59% 29.95 in 10.0 mi West 6.9 mph - N/A   Scattered Clouds
3:51 PM 66.9 °F 52.0 °F 59% 29.95 in 10.0 mi WNW 11.5 mph - N/A   Scattered Clouds
4:51 PM 66.0 °F 53.1 °F 63% 29.95 in 10.0 mi WNW 8.1 mph - N/A   Scattered Clouds
5:51 PM 64.9 °F 54.0 °F 68% 29.96 in 10.0 mi WNW 8.1 mph - N/A   Scattered Clouds
6:51 PM 64.0 °F 54.0 °F 70% 29.98 in 10.0 mi WNW 4.6 mph - N/A   Scattered Clouds
7:51 PM 64.0 °F 54.0 °F 70% 29.98 in 10.0 mi Calm Calm - N/A   Scattered Clouds
8:51 PM 63.0 °F 54.0 °F 72% 29.99 in 10.0 mi Calm Calm - N/A   Scattered Clouds
9:51 PM 63.0 °F 54.0 °F 72% 29.99 in 10.0 mi Calm Calm - N/A   Partly Cloudy
10:51 PM 62.1 °F 53.1 °F 72% 29.99 in 10.0 mi Calm Calm - N/A   Partly Cloudy
11:51 PM 61.0 °F 53.1 °F 75% 29.99 in 10.0 mi Calm Calm - N/A   Partly Cloudy